GW0701 Weather Reports


Display with metric or nautical units.
time (UTC)temp
F
wind
direction
speed
MPH
gust
MPH
rain 1hr
in
rain 24hr
in
rain mn
in
humidity
%
barometer
mb
20260904211958 96 185 4.0 7.0 0.00 0.00 0.00 53 1012.5
20260904211452 97 222 1.0 1.0 0.00 0.00 0.00 54 1012.5
20260904210948 96 213 3.0 3.0 0.00 0.00 0.00 53 1012.6
20260904210447 96 198 3.0 3.0 0.00 0.00 0.00 57 1012.8
20260904205943 96 236 1.0 1.0 0.00 0.00 0.00 55 1012.9
20260904205438 96 240 2.0 2.0 0.00 0.00 0.00 55 1012.7
20260904204935 96 191 5.0 6.0 0.00 0.00 0.00 54 1012.7
20260904204430 96 238 2.0 2.0 0.00 0.00 0.00 55 1012.8
20260904203927 96 245 2.0 2.0 0.00 0.00 0.00 56 1012.7
20260904203423 96 154 5.0 7.0 0.00 0.00 0.00 54 1012.8
20260904202919 96 253 4.0 6.0 0.00 0.00 0.00 53 1012.9
20260904202415 96 242 2.0 3.0 0.00 0.00 0.00 54 1012.8
20260904201910 97 257 3.0 3.0 0.00 0.00 0.00 54 1013.0
20260904201405 96 206 4.0 7.0 0.00 0.00 0.00 52 1013.3
20260904200901 96 230 2.0 2.0 0.00 0.00 0.00 54 1013.1
20260904200359 96 212 3.0 5.0 0.00 0.00 0.00 54 1013.2
20260904195854 96 208 3.0 3.0 0.00 0.00 0.00 54 1013.2
20260904195352 96 240 7.0 8.0 0.00 0.00 0.00 55 1013.2
20260904194847 96 219 3.0 5.0 0.00 0.00 0.00 54 1013.4
20260904194346 95 218 3.0 5.0 0.00 0.00 0.00 55 1013.6
20260904193842 97 232 2.0 2.0 0.00 0.00 0.00 54 1013.5
20260904193337 98 224 2.0 2.0 0.00 0.00 0.00 51 1013.6
20260904192832 96 234 2.0 2.0 0.00 0.00 0.00 54 1013.6
20260904192327 97 197 6.0 7.0 0.00 0.00 0.00 55 1013.6
20260904191824 97 247 1.0 1.0 0.00 0.00 0.00 55 1013.6
20260904191320 96 181 5.0 6.0 0.00 0.00 0.00 53 1013.9
20260904190817 96 178 6.0 7.0 0.00 0.00 0.00 56 1013.8
20260904190312 97 230 2.0 3.0 0.00 0.00 0.00 53 1013.9
20260904185808 97 197 3.0 3.0 0.00 0.00 0.00 54 1013.9
20260904185306 96 216 2.0 3.0 0.00 0.00 0.00 56 1014.1
20260904184803 96 254 4.0 7.0 0.00 0.00 0.00 54 1013.9
20260904184258 95 260 3.0 5.0 0.00 0.00 0.00 55 1014.1
20260904183753 95 221 2.0 2.0 0.00 0.00 0.00 59 1014.3
20260904183248 96 190 3.0 3.0 0.00 0.00 0.00 55 1014.2
20260904182743 95 204 0.0 1.0 0.00 0.00 0.00 56 1014.1
20260904182238 94 231 3.0 3.0 0.00 0.00 0.00 57 1014.1
20260904181734 96 229 1.0 1.0 0.00 0.00 0.00 57 1014.3
20260904181234 95 228 1.0 1.0 0.00 0.00 0.00 56 1014.2
20260904180729 95 244 3.0 3.0 0.00 0.00 0.00 56 1014.5
20260904180224 95 290 2.0 2.0 0.00 0.00 0.00 55 1014.3
20260904175723 94 271 5.0 6.0 0.00 0.00 0.00 57 1014.5
20260904175222 94 243 1.0 2.0 0.00 0.00 0.00 58 1014.6
20260904174717 95 220 5.0 6.0 0.00 0.00 0.00 57 1014.6
20260904174213 95 255 3.0 3.0 0.00 0.00 0.00 58 1014.6
20260904173709 94 223 1.0 1.0 0.00 0.00 0.00 59 1014.6
20260904173203 94 253 1.0 1.0 0.00 0.00 0.00 60 1014.6
20260904172700 94 222 2.0 2.0 0.00 0.00 0.00 57 1015.0
20260904172159 93 274 2.0 2.0 0.00 0.00 0.00 60 1014.8
20260904171654 93 267 3.0 5.0 0.00 0.00 0.00 60 1014.9
20260904171149 93 258 5.0 8.0 0.00 0.00 0.00 57 1014.9
20260904170645 94 252 5.0 8.0 0.00 0.00 0.00 59 1014.6
20260904170141 93 204 2.0 3.0 0.00 0.00 0.00 59 1014.7
20260904165639 94 251 3.0 3.0 0.00 0.00 0.00 59 1014.7
20260904165133 93 261 3.0 3.0 0.00 0.00 0.00 62 1014.6
20260904164634 94 260 4.0 5.0 0.00 0.00 0.00 59 1014.9
20260904164129 93 186 1.0 1.0 0.00 0.00 0.00 61 1014.7
20260904163624 92 246 5.0 7.0 0.00 0.00 0.00 62 1014.9
20260904163119 92 268 2.0 2.0 0.00 0.00 0.00 62 1014.7
20260904162614 92 223 5.0 6.0 0.00 0.00 0.00 61 1015.0
20260904162109 92 241 5.0 6.0 0.00 0.00 0.00 61 1015.0
20260904161604 91 236 2.0 2.0 0.00 0.00 0.00 62 1014.9
20260904161059 92 258 2.0 3.0 0.00 0.00 0.00 62 1014.9
20260904160555 92 245 3.0 3.0 0.00 0.00 0.00 65 1014.7
20260904160050 92 185 2.0 2.0 0.00 0.00 0.00 63 1014.8
20260904155550 91 239 2.0 2.0 0.00 0.00 0.00 63 1014.9
20260904155044 91 264 2.0 2.0 0.00 0.00 0.00 64 1014.9
20260904154538 91 214 3.0 5.0 0.00 0.00 0.00 63 1014.5
20260904154033 90 249 3.0 5.0 0.00 0.00 0.00 66 1014.6
20260904153532 91 238 3.0 5.0 0.00 0.00 0.00 63 1014.7
20260904153029 90 264 3.0 5.0 0.00 0.00 0.00 65 1014.7
20260904152524 90 304 2.0 2.0 0.00 0.00 0.00 66 1014.6
20260904152020 89 259 3.0 3.0 0.00 0.00 0.00 66 1014.6
20260904151514 89 266 2.0 2.0 0.00 0.00 0.00 66 1014.6
20260904151009 90 259 1.0 2.0 0.00 0.00 0.00 67 1014.8
20260904150509 90 209 1.0 1.0 0.00 0.00 0.00 68 1014.7
20260904150004 89 215 1.0 2.0 0.00 0.00 0.00 68 1014.6
20260904145458 88 225 1.0 1.0 0.00 0.00 0.00 69 1014.5
20260904144953 88 230 1.0 2.0 0.00 0.00 0.00 70 1014.7
20260904144449 87 239 2.0 2.0 0.00 0.00 0.00 70 1014.4
20260904143944 86 268 4.0 6.0 0.00 0.00 0.00 71 1014.4
20260904143440 86 232 2.0 2.0 0.00 0.00 0.00 71 1014.4
20260904142937 86 217 1.0 2.0 0.00 0.00 0.00 72 1014.2
20260904142433 86 236 2.0 2.0 0.00 0.00 0.00 72 1014.0
20260904141926 84 228 1.0 2.0 0.00 0.00 0.00 73 1014.2
20260904141416 84 250 2.0 2.0 0.00 0.00 0.00 76 1014.0
20260904140912 84 225 2.0 3.0 0.00 0.00 0.00 76 1014.0
20260904140407 83 216 1.0 2.0 0.00 0.00 0.00 76 1014.0
20260904135906 82 255 2.0 2.0 0.00 0.00 0.00 78 1014.0
20260904135401 82 237 4.0 5.0 0.00 0.00 0.00 78 1014.0
20260904134857 82 202 3.0 5.0 0.00 0.00 0.00 78 1014.1
20260904134356 81 271 3.0 8.0 0.00 0.00 0.00 79 1014.2
20260904133851 81 244 3.0 3.0 0.00 0.00 0.00 79 1014.0
20260904133347 81 226 3.0 3.0 0.00 0.00 0.00 80 1014.0
20260904132847 80 234 1.0 1.0 0.00 0.00 0.00 82 1014.1
20260904132341 80 242 5.0 7.0 0.00 0.00 0.00 82 1014.3
20260904131836 80 215 3.0 3.0 0.00 0.00 0.00 82 1014.0
20260904131331 79 219 2.0 2.0 0.00 0.00 0.00 83 1014.1
20260904130826 78 251 4.0 6.0 0.00 0.00 0.00 84 1014.2
20260904130325 78 219 3.0 3.0 0.00 0.00 0.00 85 1014.1
20260904125821 78 234 3.0 5.0 0.00 0.00 0.00 86 1013.9
20260904125317 78 223 3.0 3.0 0.00 0.00 0.00 86 1014.0
20260904124816 77 232 2.0 3.0 0.00 0.00 0.00 87 1013.7
20260904124313 77 237 2.0 2.0 0.00 0.00 0.00 87 1013.7
20260904123808 77 240 2.0 2.0 0.00 0.00 0.00 87 1014.0
20260904123302 77 226 1.0 1.0 0.00 0.00 0.00 88 1013.8
20260904122757 76 243 1.0 2.0 0.00 0.00 0.00 88 1013.6
20260904122256 76 222 1.0 1.0 0.00 0.00 0.00 89 1013.7
20260904121752 75 224 1.0 2.0 0.00 0.00 0.00 89 1013.7
20260904121248 75 211 1.0 1.0 0.00 0.00 0.00 90 1013.8
20260904120744 75 216 1.0 1.0 0.00 0.00 0.00 90 1013.6
20260904120240 75 224 1.0 1.0 0.00 0.00 0.00 91 1013.5
20260904115735 75 213 1.0 1.0 0.00 0.00 0.00 91 1013.6
20260904115230 75 215 2.0 3.0 0.00 0.00 0.00 91 1013.7
20260904114725 75 213 1.0 1.0 0.00 0.00 0.00 91 1013.4
20260904114225 75 210 1.0 1.0 0.00 0.00 0.00 91 1013.6
20260904113720 75 204 1.0 2.0 0.00 0.00 0.00 91 1013.4
20260904113218 75 212 0.0 1.0 0.00 0.00 0.00 91 1013.5
20260904112714 75 195 2.0 2.0 0.00 0.00 0.00 92 1013.2
20260904112209 74 215 1.0 1.0 0.00 0.00 0.00 93 1013.2
20260904111705 74 203 1.0 1.0 0.00 0.00 0.00 93 1013.1
20260904111201 74 209 0.0 0.0 0.00 0.00 0.00 93 1013.1
20260904110656 74 198 0.0 0.0 0.00 0.00 0.00 93 1013.3
20260904110155 75 194 0.0 0.0 0.00 0.00 0.00 92 1013.1
20260904105650 75 210 1.0 1.0 0.00 0.00 0.00 91 1013.0
20260904105145 75 214 1.0 1.0 0.00 0.00 0.00 90 1012.9
20260904104641 75 221 0.0 0.0 0.00 0.00 0.00 91 1012.7
20260904104136 75 231 0.0 0.0 0.00 0.00 0.00 91 1012.9
20260904103632 75 220 0.0 1.0 0.00 0.00 0.00 91 1013.1
20260904103127 75 206 1.0 1.0 0.00 0.00 0.00 90 1012.9
20260904102624 75 219 1.0 1.0 0.00 0.00 0.00 90 1012.8
20260904102118 75 220 0.0 0.0 0.00 0.00 0.00 90 1012.8
20260904101615 75 210 0.0 0.0 0.00 0.00 0.00 90 1012.6
20260904101110 75 210 0.0 0.0 0.00 0.00 0.00 90 1012.6
20260904100606 76 199 1.0 2.0 0.00 0.00 0.00 90 1012.6
20260904095555 76 214 1.0 1.0 0.00 0.00 0.00 90 1012.5
20260904095050 76 195 2.0 2.0 0.00 0.00 0.00 89 1012.6
20260904094545 76 212 1.0 1.0 0.00 0.00 0.00 89 1012.5
20260904094040 76 209 1.0 1.0 0.00 0.00 0.00 89 1012.5
20260904093538 76 213 2.0 2.0 0.00 0.00 0.00 89 1012.4
20260904093037 76 187 1.0 2.0 0.00 0.00 0.00 89 1012.4
20260904092533 76 186 2.0 2.0 0.00 0.00 0.00 89 1012.4
20260904092029 76 206 1.0 1.0 0.00 0.00 0.00 89 1012.2
20260904091525 76 220 1.0 1.0 0.00 0.00 0.00 89 1012.4
20260904091024 76 202 1.0 2.0 0.00 0.00 0.00 88 1012.2
20260904090520 77 218 1.0 1.0 0.00 0.00 0.00 88 1012.3
20260904090016 77 222 3.0 3.0 0.00 0.00 0.00 88 1012.5
20260904085511 77 220 2.0 3.0 0.00 0.00 0.00 87 1012.2
20260904085010 77 212 1.0 2.0 0.00 0.00 0.00 87 1012.4
20260904084506 77 213 1.0 1.0 0.00 0.00 0.00 87 1012.3
20260904084002 77 217 1.0 1.0 0.00 0.00 0.00 87 1012.2
20260904083458 77 224 1.0 1.0 0.00 0.00 0.00 87 1012.1
20260904082954 77 217 1.0 1.0 0.00 0.00 0.00 86 1012.2
20260904082448 77 220 1.0 1.0 0.00 0.00 0.00 86 1012.2
20260904081943 77 194 1.0 2.0 0.00 0.00 0.00 85 1012.4
20260904081439 78 226 1.0 1.0 0.00 0.00 0.00 85 1012.4
20260904080935 78 208 1.0 2.0 0.00 0.00 0.00 85 1012.2
20260904080429 77 222 0.0 0.0 0.00 0.00 0.00 85 1012.5
20260904075925 77 226 1.0 1.0 0.00 0.00 0.00 85 1012.2
20260904075421 77 215 1.0 1.0 0.00 0.00 0.00 86 1012.2
20260904074920 78 194 2.0 2.0 0.00 0.00 0.00 85 1012.3
20260904074415 78 214 0.0 1.0 0.00 0.00 0.00 84 1012.2
20260904073910 77 211 2.0 2.0 0.00 0.00 0.00 85 1012.2
20260904073406 77 228 1.0 1.0 0.00 0.00 0.00 85 1012.2
20260904072902 77 203 2.0 2.0 0.00 0.00 0.00 85 1012.2
20260904072356 77 207 0.0 0.0 0.00 0.00 0.00 86 1012.1
20260904071852 78 228 0.0 0.0 0.00 0.00 0.00 85 1012.0
20260904071347 78 212 1.0 1.0 0.00 0.00 0.00 84 1012.0
20260904070842 78 213 1.0 1.0 0.00 0.00 0.00 84 1012.2
20260904070341 78 212 0.0 0.0 0.00 0.00 0.00 84 1012.2
20260904065835 78 221 0.0 1.0 0.00 0.00 0.00 85 1012.3
20260904065332 78 206 0.0 0.0 0.00 0.00 0.00 85 1012.3
20260904064826 78 211 0.0 0.0 0.00 0.00 0.00 83 1012.5
20260904064323 79 211 0.0 0.0 0.00 0.00 0.00 82 1012.4
20260904063818 79 192 1.0 1.0 0.00 0.00 0.00 82 1012.2
20260904063314 79 196 1.0 1.0 0.00 0.00 0.00 82 1012.5
20260904062804 79 192 0.0 0.0 0.00 0.00 0.00 82 1012.6
20260904062300 79 172 0.0 1.0 0.00 0.00 0.00 82 1012.4
20260904061755 79 195 0.0 0.0 0.00 0.00 0.00 82 1012.6
20260904061251 79 198 0.0 0.0 0.00 0.00 0.00 82 1012.8
20260904060748 79 170 1.0 2.0 0.00 0.00 0.00 82 1012.6
20260904060243 79 183 0.0 1.0 0.00 0.00 0.00 82 1012.4
20260904055739 79 189 0.0 0.0 0.00 0.00 0.00 82 1012.6
20260904055238 79 154 2.0 2.0 0.00 0.00 0.00 82 1012.6
20260904054734 79 164 0.0 0.0 0.00 0.00 0.00 83 1012.6
20260904054230 79 181 0.0 0.0 0.00 0.00 0.00 81 1012.7
20260904053725 79 177 0.0 1.0 0.00 0.00 0.00 81 1012.5
20260904053225 78 165 1.0 1.0 0.00 0.00 0.00 82 1012.7
20260904052721 78 189 0.0 0.0 0.00 0.00 0.00 83 1012.5
20260904052217 79 94 1.0 1.0 0.00 0.00 0.00 84 1012.6
20260904051713 79 111 3.0 3.0 0.00 0.00 0.00 82 1012.6
20260904051208 80 175 1.0 1.0 0.00 0.00 0.00 79 1012.6
20260904050703 80 186 1.0 1.0 0.00 0.00 0.00 78 1012.5
20260904050159 80 202 0.0 0.0 0.00 0.00 0.00 78 1012.4
20260904045654 81 222 0.0 0.0 0.00 0.00 0.00 78 1012.6
20260904045153 81 223 1.0 2.0 0.00 0.00 0.00 76 1012.7
20260904044649 81 214 1.0 1.0 0.00 0.00 0.00 77 1012.4
20260904044145 81 202 2.0 2.0 0.00 0.00 0.00 77 1012.4
20260904043642 80 205 0.0 0.0 0.00 0.00 0.00 78 1012.4
20260904043137 80 219 0.0 0.0 0.00 0.00 0.00 79 1012.4
20260904042633 80 211 0.0 1.0 0.00 0.00 0.00 79 1012.3
20260904042128 80 218 0.0 0.0 0.00 0.00 0.00 79 1012.5
20260904041624 80 217 0.0 0.0 0.00 0.00 0.00 79 1012.3
20260904041120 80 209 0.0 0.0 0.00 0.00 0.00 80 1012.3
20260904040616 80 208 0.0 0.0 0.00 0.00 0.00 80 1012.2
20260904040112 80 209 0.0 0.0 0.00 0.00 0.00 80 1012.4
20260904035607 80 213 0.0 0.0 0.00 0.00 0.00 79 1012.2
20260904035106 81 209 0.0 1.0 0.00 0.00 0.00 79 1012.6
20260904034601 81 198 0.0 1.0 0.00 0.00 0.00 78 1012.3
20260904034057 80 169 2.0 2.0 0.00 0.00 0.00 80 1012.5
20260904033553 80 186 0.0 1.0 0.00 0.00 0.00 81 1012.3
20260904033050 80 195 0.0 0.0 0.00 0.00 0.00 82 1012.3
20260904032545 80 195 0.0 0.0 0.00 0.00 0.00 83 1012.2
20260904032044 81 195 0.0 0.0 0.00 0.00 0.00 82 1012.5
20260904031543 81 195 0.0 0.0 0.00 0.00 0.00 78 1012.3
20260904031040 82 194 0.0 0.0 0.00 0.00 0.00 78 1012.4
20260904030536 82 194 0.0 0.0 0.00 0.00 0.00 76 1012.1
20260904030031 82 193 0.0 0.0 0.00 0.00 0.00 76 1012.3
20260904025526 82 186 0.0 0.0 0.00 0.00 0.00 77 1012.2
20260904025026 82 196 0.0 0.0 0.00 0.00 0.00 78 1012.4
20260904024522 82 199 0.0 0.0 0.00 0.00 0.00 76 1012.2
20260904024017 82 209 0.0 0.0 0.00 0.00 0.00 77 1012.2
20260904023514 82 211 0.0 0.0 0.00 0.00 0.00 79 1012.0
20260904023009 83 206 0.0 0.0 0.00 0.00 0.00 77 1012.0
20260904022504 83 210 0.0 0.0 0.00 0.00 0.00 76 1012.1
20260904022001 83 199 0.0 0.0 0.00 0.00 0.00 75 1012.4
20260904021457 84 206 0.0 0.0 0.00 0.00 0.00 76 1012.2
20260904020956 84 202 0.0 0.0 0.00 0.00 0.00 74 1012.0
20260904020452 84 197 1.0 1.0 0.00 0.00 0.00 74 1012.0
20260904015950 84 207 1.0 1.0 0.00 0.00 0.00 74 1011.9
20260904015446 85 204 1.0 1.0 0.00 0.00 0.00 73 1011.9
20260904014944 85 200 2.0 3.0 0.00 0.00 0.00 73 1012.0
20260904014439 85 208 1.0 1.0 0.00 0.00 0.00 74 1011.7
20260904013935 84 196 1.0 2.0 0.00 0.00 0.00 74 1011.7
20260904013431 84 215 0.0 0.0 0.00 0.00 0.00 75 1011.9
20260904012927 85 214 0.0 0.0 0.00 0.00 0.00 74 1011.5
20260904012426 85 210 1.0 1.0 0.00 0.00 0.00 73 1011.5
20260904011921 86 230 0.0 0.0 0.00 0.00 0.00 72 1011.6
20260904011416 86 202 1.0 1.0 0.00 0.00 0.00 72 1011.5
20260904010911 86 202 2.0 2.0 0.00 0.00 0.00 72 1011.5
20260904010408 86 195 1.0 1.0 0.00 0.00 0.00 73 1011.3
20260904005902 87 190 3.0 3.0 0.00 0.00 0.00 72 1011.5
20260904005358 87 195 3.0 3.0 0.00 0.00 0.00 71 1011.3
20260904004853 87 190 1.0 2.0 0.00 0.00 0.00 73 1011.3
20260904004350 87 187 0.0 0.0 0.00 0.00 0.00 72 1011.5
20260904003849 87 183 0.0 1.0 0.00 0.00 0.00 71 1011.3
20260904003345 88 182 0.0 0.0 0.00 0.00 0.00 70 1011.3
20260904002840 88 181 0.0 1.0 0.00 0.00 0.00 69 1011.2
20260904002337 88 210 0.0 1.0 0.00 0.00 0.00 69 1011.3
20260904001836 89 182 0.0 1.0 0.00 0.00 0.00 69 1011.6
20260904001331 89 193 1.0 2.0 0.00 0.00 0.00 68 1011.3
20260904000826 90 185 1.0 1.0 0.00 0.00 0.00 68 1011.5
20260904000325 90 187 1.0 1.0 0.00 0.00 0.00 68 1011.5
20260903235820 91 195 0.0 0.0 0.00 0.00 0.00 66 1011.5
20260903235317 91 199 1.0 2.0 0.00 0.00 0.00 65 1011.8
20260903234815 91 200 1.0 1.0 0.00 0.00 0.00 64 1011.5
20260903234312 91 208 1.0 1.0 0.00 0.00 0.00 64 1011.6
20260903233808 92 197 1.0 2.0 0.00 0.00 0.00 63 1011.5
20260903233304 92 205 1.0 1.0 0.00 0.00 0.00 63 1011.3
20260903232803 93 193 2.0 2.0 0.00 0.00 0.00 63 1011.2
20260903232259 93 190 1.0 2.0 0.00 0.00 0.00 62 1011.6
20260903231757 93 180 2.0 2.0 0.00 0.00 0.00 62 1011.6
20260903231253 94 190 0.0 0.0 0.00 0.00 0.00 62 1011.7
20260903230748 94 200 0.0 0.0 0.00 0.00 0.00 61 1011.6
20260903230248 94 180 2.0 3.0 0.00 0.00 0.00 60 1011.8
20260903225744 94 176 3.0 3.0 0.00 0.00 0.00 58 1011.5
20260903225241 95 204 1.0 2.0 0.00 0.00 0.00 58 1011.9
20260903224737 95 209 3.0 3.0 0.00 0.00 0.00 57 1011.8
20260903224233 95 205 2.0 2.0 0.00 0.00 0.00 59 1011.6
20260903223728 95 195 2.0 2.0 0.00 0.00 0.00 58 1011.8
20260903223226 96 180 2.0 2.0 0.00 0.00 0.00 57 1011.8
20260903222721 96 208 2.0 2.0 0.00 0.00 0.00 54 1011.7
20260903222220 95 225 2.0 2.0 0.00 0.00 0.00 59 1011.6
20260903221715 95 213 2.0 2.0 0.00 0.00 0.00 57 1011.7
20260903221214 96 204 2.0 2.0 0.00 0.00 0.00 55 1011.9
20260903220712 96 229 2.0 2.0 0.00 0.00 0.00 54 1011.8
20260903220207 98 203 2.0 2.0 0.00 0.00 0.00 54 1011.8
20260903215701 99 212 2.0 2.0 0.00 0.00 0.00 51 1011.9
20260903215156 98 242 1.0 1.0 0.00 0.00 0.00 50 1012.0
20260903214654 98 229 1.0 1.0 0.00 0.00 0.00 54 1012.0
20260903214150 97 210 4.0 6.0 0.00 0.00 0.00 53 1012.0
20260903213645 97 224 2.0 3.0 0.00 0.00 0.00 55 1012.0
20260903213141 98 186 5.0 6.0 0.00 0.00 0.00 51 1012.2
20260903212636 98 257 0.0 1.0 0.00 0.00 0.00 54 1012.1